Weather History for KMTJ - November, 2011

Change the Weather History Date:

Friday, November 25, 2011

  Actual Average Record
Temperature  
Mean Temperature 43 °F 33 °F  
Max Temperature 52 °F 45 °F 57 °F (1998)
Min Temperature 34 °F 22 °F 1 °F (2010)
Degree Days  
Heating Degree Days 22 32  
Month to date heating degree days 664  
Since 1 July heating degree days 1255  
Cooling Degree Days 0 0  
Month to date cooling degree days 0  
Year to date cooling degree days 643  
Moisture  
Dew Point 24 °F    
Average Humidity 49    
Maximum Humidity 82    
Minimum Humidity 31    
Precipitation  
Precipitation 0.00 in 0.02 in 0.02 in (2001)
Month to date precipitation 0.70  
Year to date precipitation 10.54  
Sea Level Pressure  
Sea Level Pressure 29.96 in    
Wind  
Wind Speed 9 mph (NW)    
Max Wind Speed 17 mph    
Max Gust Speed 22 mph    
Visibility 10 miles    
Events      
T = Trace of Precipitation, MM = Missing Value Source: NWS Daily Summary

Daily Weather History Graph

Daily Weather History Graph

Search for Another Location

Airport or City:

Trip Planner

Search our weather history database for the weather conditions in past years. The results will help you decide how hot, cold, wet, or windy it might be!

Date:

Astronomy

Nov. 25, 2011 Rise Set
Actual Time 7:03 AM MST 4:52 PM MST
Civil Twilight 6:34 AM MST 5:21 PM MST
Nautical Twilight 6:02 AM MST 5:54 PM MST
Astronomical Twilight 5:30 AM MST 6:26 PM MST
Moon 7:34 AM MST (11/25) 5:24 PM MST (11/25)
Length of Visible Light 10h 46m
Length of Day
9h 49m
New Moon, 0% of the Moon is Illuminated
Nov 25
New Moon
Dec 2
First Quarter
Dec 10
Full
Dec 17
Last Quarter
Dec 24
New

Hourly Weather History & Observations

Time (MST) Temp. Windchill Dew Point Humidity Pressure Visibility Wind Dir Wind Speed Gust Speed Precip Events Conditions
1:53 AM 39.9 °F 32.9 °F 23.0 °F 51% 29.92 in 10.0 mi North 11.5 mph - N/A   Mostly Cloudy
3:53 AM 43.0 °F 36.8 °F 32.0 °F 65% 29.88 in 10.0 mi ESE 11.5 mph - N/A   Overcast
4:53 AM 39.9 °F 35.8 °F 33.1 °F 77% 29.88 in 10.0 mi SE 5.8 mph - N/A   Overcast
5:53 AM 36.0 °F - 30.9 °F 82% 29.91 in 10.0 mi Calm Calm - N/A   Clear
6:53 AM 34.0 °F 31.0 °F 28.9 °F 82% 29.94 in 10.0 mi WNW 3.5 mph - N/A   Overcast
7:53 AM 35.1 °F 30.1 °F 28.9 °F 78% 29.96 in 10.0 mi SE 5.8 mph - N/A   Overcast
8:53 AM 41.0 °F - 30.0 °F 65% 29.95 in 10.0 mi Calm Calm - N/A   Scattered Clouds
9:53 AM 45.0 °F 41.8 °F 28.9 °F 53% 29.94 in 10.0 mi North 5.8 mph - N/A   Clear
10:53 AM 46.0 °F 44.8 °F 28.0 °F 50% 29.94 in 10.0 mi WNW 3.5 mph - N/A   Clear
11:53 AM 50.0 °F - 26.1 °F 39% 29.90 in 10.0 mi WNW 9.2 mph - N/A   Clear
12:53 PM 51.1 °F - 21.9 °F 32% 29.87 in 10.0 mi NW 13.8 mph 21.9 mph N/A   Clear
1:53 PM 52.0 °F - 21.9 °F 31% 29.87 in 10.0 mi NW 11.5 mph - N/A   Clear
2:53 PM 52.0 °F - 21.9 °F 31% 29.86 in 10.0 mi NNW 9.2 mph - N/A   Clear
3:53 PM 51.1 °F - 21.9 °F 32% 29.89 in 10.0 mi NW 11.5 mph - N/A   Clear
4:53 PM 46.0 °F 41.0 °F 23.0 °F 40% 29.92 in 10.0 mi NW 10.4 mph - N/A   Clear
5:53 PM 45.0 °F 40.6 °F 19.0 °F 36% 29.98 in 10.0 mi West 8.1 mph - N/A   Mostly Cloudy
6:53 PM 44.1 °F 38.1 °F 18.0 °F 35% 30.01 in 10.0 mi WNW 11.5 mph - N/A   Scattered Clouds
7:53 PM 39.0 °F 34.8 °F 18.0 °F 43% 30.06 in 10.0 mi WNW 5.8 mph - N/A   Clear
8:53 PM 39.0 °F 30.6 °F 16.0 °F 39% 30.10 in 10.0 mi NW 15.0 mph - N/A   Clear
9:53 PM 39.0 °F 31.4 °F 16.0 °F 39% 30.12 in 10.0 mi NW 12.7 mph - N/A   Clear
11:53 PM 36.0 °F 26.0 °F 12.9 °F 39% 30.19 in 10.0 mi WNW 17.3 mph - N/A   Clear